locationName,lineName,date,time,countIn,countOut
���X�X����,2_1_1,2022/6/1,0:00,0,3
���X�X����,2_1_1,2022/6/1,1:00,1,1
���X�X����,2_1_1,2022/6/1,2:00,2,2
���X�X����,2_1_1,2022/6/1,3:00,2,2
���X�X����,2_1_1,2022/6/1,4:00,4,2
���X�X����,2_1_1,2022/6/1,5:00,22,20
���X�X����,2_1_1,2022/6/1,6:00,41,64
���X�X����,2_1_1,2022/6/1,7:00,95,438
���X�X����,2_1_1,2022/6/1,8:00,102,355
���X�X����,2_1_1,2022/6/1,9:00,139,172
���X�X����,2_1_1,2022/6/1,10:00,130,180
���X�X����,2_1_1,2022/6/1,11:00,151,176
���X�X����,2_1_1,2022/6/1,12:00,191,202
���X�X����,2_1_1,2022/6/1,13:00,189,167
���X�X����,2_1_1,2022/6/1,14:00,155,134
���X�X����,2_1_1,2022/6/1,15:00,229,138
���X�X����,2_1_1,2022/6/1,16:00,421,167
���X�X����,2_1_1,2022/6/1,17:00,312,158
���X�X����,2_1_1,2022/6/1,18:00,192,155
���X�X����,2_1_1,2022/6/1,19:00,77,96
���X�X����,2_1_1,2022/6/1,20:00,74,42
���X�X����,2_1_1,2022/6/1,21:00,92,42
���X�X����,2_1_1,2022/6/1,22:00,17,11
���X�X����,2_1_1,2022/6/1,23:00,5,2
���X�X����,2_1_1,2022/6/2,0:00,1,0
���X�X����,2_1_1,2022/6/2,1:00,3,0
���X�X����,2_1_1,2022/6/2,2:00,2,1
���X�X����,2_1_1,2022/6/2,3:00,3,0
���X�X����,2_1_1,2022/6/2,4:00,4,1
���X�X����,2_1_1,2022/6/2,5:00,25,25
���X�X����,2_1_1,2022/6/2,6:00,39,56
���X�X����,2_1_1,2022/6/2,7:00,87,419
���X�X����,2_1_1,2022/6/2,8:00,97,373
���X�X����,2_1_1,2022/6/2,9:00,131,148
���X�X����,2_1_1,2022/6/2,10:00,165,186
���X�X����,2_1_1,2022/6/2,11:00,153,201
���X�X����,2_1_1,2022/6/2,12:00,189,185
���X�X����,2_1_1,2022/6/2,13:00,151,135
���X�X����,2_1_1,2022/6/2,14:00,141,137
���X�X����,2_1_1,2022/6/2,15:00,129,110
���X�X����,2_1_1,2022/6/2,16:00,216,146
���X�X����,2_1_1,2022/6/2,17:00,306,129
���X�X����,2_1_1,2022/6/2,18:00,341,134
���X�X����,2_1_1,2022/6/2,19:00,111,86
���X�X����,2_1_1,2022/6/2,20:00,71,45
���X�X����,2_1_1,2022/6/2,21:00,87,34
���X�X����,2_1_1,2022/6/2,22:00,24,13
���X�X����,2_1_1,2022/6/2,23:00,12,2
���X�X����,2_1_1,2022/6/3,0:00,0,0
���X�X����,2_1_1,2022/6/3,1:00,2,1
���X�X����,2_1_1,2022/6/3,2:00,1,1
���X�X����,2_1_1,2022/6/3,3:00,3,2
���X�X����,2_1_1,2022/6/3,4:00,0,2
���X�X����,2_1_1,2022/6/3,5:00,15,21
���X�X����,2_1_1,2022/6/3,6:00,33,65
���X�X����,2_1_1,2022/6/3,7:00,86,474
���X�X����,2_1_1,2022/6/3,8:00,102,343
���X�X����,2_1_1,2022/6/3,9:00,138,184
���X�X����,2_1_1,2022/6/3,10:00,174,226
���X�X����,2_1_1,2022/6/3,11:00,166,199
���X�X����,2_1_1,2022/6/3,12:00,195,216
���X�X����,2_1_1,2022/6/3,13:00,199,193
���X�X����,2_1_1,2022/6/3,14:00,177,150
���X�X����,2_1_1,2022/6/3,15:00,234,137
���X�X����,2_1_1,2022/6/3,16:00,250,148
���X�X����,2_1_1,2022/6/3,17:00,316,132
���X�X����,2_1_1,2022/6/3,18:00,356,132
���X�X����,2_1_1,2022/6/3,19:00,111,131
���X�X����,2_1_1,2022/6/3,20:00,88,71
���X�X����,2_1_1,2022/6/3,21:00,94,46
���X�X����,2_1_1,2022/6/3,22:00,34,9
���X�X����,2_1_1,2022/6/3,23:00,4,1
���X�X����,2_1_1,2022/6/4,0:00,4,0
���X�X����,2_1_1,2022/6/4,1:00,4,1
���X�X����,2_1_1,2022/6/4,2:00,7,0
���X�X����,2_1_1,2022/6/4,3:00,2,1
���X�X����,2_1_1,2022/6/4,4:00,4,1
���X�X����,2_1_1,2022/6/4,5:00,20,26
���X�X����,2_1_1,2022/6/4,6:00,37,38
���X�X����,2_1_1,2022/6/4,7:00,55,147
���X�X����,2_1_1,2022/6/4,8:00,79,152
���X�X����,2_1_1,2022/6/4,9:00,137,182
���X�X����,2_1_1,2022/6/4,10:00,173,303
���X�X����,2_1_1,2022/6/4,11:00,212,338
���X�X����,2_1_1,2022/6/4,12:00,58,52
���X�X����,2_1_1,2022/6/4,13:00,0,0
���X�X����,2_1_1,2022/6/4,14:00,0,0
���X�X����,2_1_1,2022/6/4,15:00,0,0
���X�X����,2_1_1,2022/6/4,16:00,0,0
���X�X����,2_1_1,2022/6/4,17:00,0,0
���X�X����,2_1_1,2022/6/4,18:00,0,0
���X�X����,2_1_1,2022/6/4,19:00,0,0
���X�X����,2_1_1,2022/6/4,20:00,0,0
���X�X����,2_1_1,2022/6/4,21:00,0,0
���X�X����,2_1_1,2022/6/4,22:00,0,0
���X�X����,2_1_1,2022/6/4,23:00,0,0
���X�X����,2_1_1,2022/6/5,0:00,0,0
���X�X����,2_1_1,2022/6/5,1:00,0,0
���X�X����,2_1_1,2022/6/5,2:00,0,0
���X�X����,2_1_1,2022/6/5,3:00,0,0
���X�X����,2_1_1,2022/6/5,4:00,0,0
���X�X����,2_1_1,2022/6/5,5:00,0,0
���X�X����,2_1_1,2022/6/5,6:00,0,0
���X�X����,2_1_1,2022/6/5,7:00,0,0
���X�X����,2_1_1,2022/6/5,8:00,0,0
���X�X����,2_1_1,2022/6/5,9:00,0,0
���X�X����,2_1_1,2022/6/5,10:00,0,0
���X�X����,2_1_1,2022/6/5,11:00,0,0
���X�X����,2_1_1,2022/6/5,12:00,0,0
���X�X����,2_1_1,2022/6/5,13:00,0,0
���X�X����,2_1_1,2022/6/5,14:00,0,0
���X�X����,2_1_1,2022/6/5,15:00,0,0
���X�X����,2_1_1,2022/6/5,16:00,0,0
���X�X����,2_1_1,2022/6/5,17:00,0,0
���X�X����,2_1_1,2022/6/5,18:00,0,0
���X�X����,2_1_1,2022/6/5,19:00,0,0
���X�X����,2_1_1,2022/6/5,20:00,0,0
���X�X����,2_1_1,2022/6/5,21:00,0,0
���X�X����,2_1_1,2022/6/5,22:00,0,0
���X�X����,2_1_1,2022/6/5,23:00,0,0
���X�X����,2_1_1,2022/6/6,0:00,0,0
���X�X����,2_1_1,2022/6/6,1:00,0,0
���X�X����,2_1_1,2022/6/6,2:00,0,0
���X�X����,2_1_1,2022/6/6,3:00,0,0
���X�X����,2_1_1,2022/6/6,4:00,0,0
���X�X����,2_1_1,2022/6/6,5:00,0,0
���X�X����,2_1_1,2022/6/6,6:00,0,0
���X�X����,2_1_1,2022/6/6,7:00,0,0
���X�X����,2_1_1,2022/6/6,8:00,0,0
���X�X����,2_1_1,2022/6/6,9:00,0,0
���X�X����,2_1_1,2022/6/6,10:00,0,0
���X�X����,2_1_1,2022/6/6,11:00,0,0
���X�X����,2_1_1,2022/6/6,12:00,0,0
���X�X����,2_1_1,2022/6/6,13:00,0,0
���X�X����,2_1_1,2022/6/6,14:00,0,0
���X�X����,2_1_1,2022/6/6,15:00,0,0
���X�X����,2_1_1,2022/6/6,16:00,0,0
���X�X����,2_1_1,2022/6/6,17:00,0,0
���X�X����,2_1_1,2022/6/6,18:00,0,0
���X�X����,2_1_1,2022/6/6,19:00,0,0
���X�X����,2_1_1,2022/6/6,20:00,0,0
���X�X����,2_1_1,2022/6/6,21:00,0,0
���X�X����,2_1_1,2022/6/6,22:00,0,0
���X�X����,2_1_1,2022/6/6,23:00,0,0
���X�X����,2_1_1,2022/6/7,0:00,0,0
���X�X����,2_1_1,2022/6/7,1:00,0,0
���X�X����,2_1_1,2022/6/7,2:00,0,0
���X�X����,2_1_1,2022/6/7,3:00,0,0
���X�X����,2_1_1,2022/6/7,4:00,0,0
���X�X����,2_1_1,2022/6/7,5:00,0,0
���X�X����,2_1_1,2022/6/7,6:00,0,0
���X�X����,2_1_1,2022/6/7,7:00,0,0
���X�X����,2_1_1,2022/6/7,8:00,0,0
���X�X����,2_1_1,2022/6/7,9:00,0,0
���X�X����,2_1_1,2022/6/7,10:00,0,0
���X�X����,2_1_1,2022/6/7,11:00,0,0
���X�X����,2_1_1,2022/6/7,12:00,0,0
���X�X����,2_1_1,2022/6/7,13:00,139,118
���X�X����,2_1_1,2022/6/7,14:00,131,122
���X�X����,2_1_1,2022/6/7,15:00,119,121
���X�X����,2_1_1,2022/6/7,16:00,222,131
���X�X����,2_1_1,2022/6/7,17:00,315,139
���X�X����,2_1_1,2022/6/7,18:00,387,99
���X�X����,2_1_1,2022/6/7,19:00,100,102
���X�X����,2_1_1,2022/6/7,20:00,72,62
���X�X����,2_1_1,2022/6/7,21:00,68,39
���X�X����,2_1_1,2022/6/7,22:00,28,13
���X�X����,2_1_1,2022/6/7,23:00,6,1
���X�X����,2_1_1,2022/6/8,0:00,2,0
���X�X����,2_1_1,2022/6/8,1:00,2,2
���X�X����,2_1_1,2022/6/8,2:00,1,1
���X�X����,2_1_1,2022/6/8,3:00,1,3
���X�X����,2_1_1,2022/6/8,4:00,2,1
���X�X����,2_1_1,2022/6/8,5:00,19,24
���X�X����,2_1_1,2022/6/8,6:00,37,52
���X�X����,2_1_1,2022/6/8,7:00,85,429
���X�X����,2_1_1,2022/6/8,8:00,92,360
���X�X����,2_1_1,2022/6/8,9:00,117,134
���X�X����,2_1_1,2022/6/8,10:00,119,227
���X�X����,2_1_1,2022/6/8,11:00,175,188
���X�X����,2_1_1,2022/6/8,12:00,190,226
���X�X����,2_1_1,2022/6/8,13:00,192,163
���X�X����,2_1_1,2022/6/8,14:00,191,128
���X�X����,2_1_1,2022/6/8,15:00,253,170
���X�X����,2_1_1,2022/6/8,16:00,347,152
���X�X����,2_1_1,2022/6/8,17:00,306,176
���X�X����,2_1_1,2022/6/8,18:00,280,172
���X�X����,2_1_1,2022/6/8,19:00,107,91
���X�X����,2_1_1,2022/6/8,20:00,82,61
���X�X����,2_1_1,2022/6/8,21:00,96,36
���X�X����,2_1_1,2022/6/8,22:00,25,11
���X�X����,2_1_1,2022/6/8,23:00,2,1
���X�X����,2_1_1,2022/6/9,0:00,2,0
���X�X����,2_1_1,2022/6/9,1:00,1,1
���X�X����,2_1_1,2022/6/9,2:00,1,1
���X�X����,2_1_1,2022/6/9,3:00,1,1
���X�X����,2_1_1,2022/6/9,4:00,2,1
���X�X����,2_1_1,2022/6/9,5:00,26,31
���X�X����,2_1_1,2022/6/9,6:00,43,53
���X�X����,2_1_1,2022/6/9,7:00,91,468
���X�X����,2_1_1,2022/6/9,8:00,92,339
���X�X����,2_1_1,2022/6/9,9:00,120,147
���X�X����,2_1_1,2022/6/9,10:00,116,169
���X�X����,2_1_1,2022/6/9,11:00,140,176
���X�X����,2_1_1,2022/6/9,12:00,200,184
���X�X����,2_1_1,2022/6/9,13:00,139,151
���X�X����,2_1_1,2022/6/9,14:00,184,139
���X�X����,2_1_1,2022/6/9,15:00,187,116
���X�X����,2_1_1,2022/6/9,16:00,262,158
���X�X����,2_1_1,2022/6/9,17:00,282,149
���X�X����,2_1_1,2022/6/9,18:00,322,136
���X�X����,2_1_1,2022/6/9,19:00,130,98
���X�X����,2_1_1,2022/6/9,20:00,73,58
���X�X����,2_1_1,2022/6/9,21:00,102,47
���X�X����,2_1_1,2022/6/9,22:00,20,5
���X�X����,2_1_1,2022/6/9,23:00,9,1
���X�X����,2_1_1,2022/6/10,0:00,5,0
���X�X����,2_1_1,2022/6/10,1:00,4,2
���X�X����,2_1_1,2022/6/10,2:00,0,2
���X�X����,2_1_1,2022/6/10,3:00,2,1
���X�X����,2_1_1,2022/6/10,4:00,2,0
���X�X����,2_1_1,2022/6/10,5:00,17,32
���X�X����,2_1_1,2022/6/10,6:00,40,47
���X�X����,2_1_1,2022/6/10,7:00,88,457
���X�X����,2_1_1,2022/6/10,8:00,85,317
���X�X����,2_1_1,2022/6/10,9:00,158,185
���X�X����,2_1_1,2022/6/10,10:00,206,208
���X�X����,2_1_1,2022/6/10,11:00,173,281
���X�X����,2_1_1,2022/6/10,12:00,189,228
���X�X����,2_1_1,2022/6/10,13:00,237,210
���X�X����,2_1_1,2022/6/10,14:00,265,269
���X�X����,2_1_1,2022/6/10,15:00,320,167
���X�X����,2_1_1,2022/6/10,16:00,362,165
���X�X����,2_1_1,2022/6/10,17:00,317,140
���X�X����,2_1_1,2022/6/10,18:00,236,154
���X�X����,2_1_1,2022/6/10,19:00,123,126
���X�X����,2_1_1,2022/6/10,20:00,95,72
���X�X����,2_1_1,2022/6/10,21:00,114,42
���X�X����,2_1_1,2022/6/10,22:00,28,15
���X�X����,2_1_1,2022/6/10,23:00,9,2
���X�X����,2_1_1,2022/6/11,0:00,4,1
���X�X����,2_1_1,2022/6/11,1:00,7,1
���X�X����,2_1_1,2022/6/11,2:00,0,2
���X�X����,2_1_1,2022/6/11,3:00,3,1
���X�X����,2_1_1,2022/6/11,4:00,0,1
���X�X����,2_1_1,2022/6/11,5:00,22,16
���X�X����,2_1_1,2022/6/11,6:00,21,28
���X�X����,2_1_1,2022/6/11,7:00,41,64
���X�X����,2_1_1,2022/6/11,8:00,53,103
���X�X����,2_1_1,2022/6/11,9:00,94,172
���X�X����,2_1_1,2022/6/11,10:00,165,261
���X�X����,2_1_1,2022/6/11,11:00,169,356
���X�X����,2_1_1,2022/6/11,12:00,277,367
���X�X����,2_1_1,2022/6/11,13:00,402,311
���X�X����,2_1_1,2022/6/11,14:00,343,289
���X�X����,2_1_1,2022/6/11,15:00,296,234
���X�X����,2_1_1,2022/6/11,16:00,258,242
���X�X����,2_1_1,2022/6/11,17:00,251,209
���X�X����,2_1_1,2022/6/11,18:00,170,163
���X�X����,2_1_1,2022/6/11,19:00,143,127
���X�X����,2_1_1,2022/6/11,20:00,71,76
���X�X����,2_1_1,2022/6/11,21:00,93,66
���X�X����,2_1_1,2022/6/11,22:00,41,7
���X�X����,2_1_1,2022/6/11,23:00,14,2
���X�X����,2_1_1,2022/6/12,0:00,14,2
���X�X����,2_1_1,2022/6/12,1:00,1,0
���X�X����,2_1_1,2022/6/12,2:00,5,2
���X�X����,2_1_1,2022/6/12,3:00,6,0
���X�X����,2_1_1,2022/6/12,4:00,1,3
���X�X����,2_1_1,2022/6/12,5:00,13,26
���X�X����,2_1_1,2022/6/12,6:00,23,30
���X�X����,2_1_1,2022/6/12,7:00,40,66
���X�X����,2_1_1,2022/6/12,8:00,90,122
���X�X����,2_1_1,2022/6/12,9:00,131,220
���X�X����,2_1_1,2022/6/12,10:00,182,349
���X�X����,2_1_1,2022/6/12,11:00,291,479
���X�X����,2_1_1,2022/6/12,12:00,376,524
���X�X����,2_1_1,2022/6/12,13:00,488,494
���X�X����,2_1_1,2022/6/12,14:00,548,424
���X�X����,2_1_1,2022/6/12,15:00,523,309
���X�X����,2_1_1,2022/6/12,16:00,378,255
���X�X����,2_1_1,2022/6/12,17:00,249,206
���X�X����,2_1_1,2022/6/12,18:00,146,109
���X�X����,2_1_1,2022/6/12,19:00,102,90
���X�X����,2_1_1,2022/6/12,20:00,68,53
���X�X����,2_1_1,2022/6/12,21:00,53,32
���X�X����,2_1_1,2022/6/12,22:00,16,10
���X�X����,2_1_1,2022/6/12,23:00,12,5
���X�X����,2_1_1,2022/6/13,0:00,4,3
���X�X����,2_1_1,2022/6/13,1:00,0,1
���X�X����,2_1_1,2022/6/13,2:00,1,0
���X�X����,2_1_1,2022/6/13,3:00,2,0
���X�X����,2_1_1,2022/6/13,4:00,6,2
���X�X����,2_1_1,2022/6/13,5:00,17,20
���X�X����,2_1_1,2022/6/13,6:00,39,57
���X�X����,2_1_1,2022/6/13,7:00,85,414
���X�X����,2_1_1,2022/6/13,8:00,85,370
���X�X����,2_1_1,2022/6/13,9:00,121,145
���X�X����,2_1_1,2022/6/13,10:00,179,205
���X�X����,2_1_1,2022/6/13,11:00,156,224
���X�X����,2_1_1,2022/6/13,12:00,206,211
���X�X����,2_1_1,2022/6/13,13:00,206,183
���X�X����,2_1_1,2022/6/13,14:00,199,144
���X�X����,2_1_1,2022/6/13,15:00,246,123
���X�X����,2_1_1,2022/6/13,16:00,234,159
���X�X����,2_1_1,2022/6/13,17:00,295,124
���X�X����,2_1_1,2022/6/13,18:00,350,148
���X�X����,2_1_1,2022/6/13,19:00,86,85
���X�X����,2_1_1,2022/6/13,20:00,57,61
���X�X����,2_1_1,2022/6/13,21:00,56,31
���X�X����,2_1_1,2022/6/13,22:00,12,8
���X�X����,2_1_1,2022/6/13,23:00,8,3
���X�X����,2_1_1,2022/6/14,0:00,3,2
���X�X����,2_1_1,2022/6/14,1:00,5,0
���X�X����,2_1_1,2022/6/14,2:00,0,2
���X�X����,2_1_1,2022/6/14,3:00,4,5
���X�X����,2_1_1,2022/6/14,4:00,6,0
���X�X����,2_1_1,2022/6/14,5:00,24,23
���X�X����,2_1_1,2022/6/14,6:00,34,31
���X�X����,2_1_1,2022/6/14,7:00,63,247
���X�X����,2_1_1,2022/6/14,8:00,56,238
���X�X����,2_1_1,2022/6/14,9:00,93,126
���X�X����,2_1_1,2022/6/14,10:00,92,126
���X�X����,2_1_1,2022/6/14,11:00,112,148
���X�X����,2_1_1,2022/6/14,12:00,158,173
���X�X����,2_1_1,2022/6/14,13:00,162,101
���X�X����,2_1_1,2022/6/14,14:00,130,110
���X�X����,2_1_1,2022/6/14,15:00,137,76
���X�X����,2_1_1,2022/6/14,16:00,139,97
���X�X����,2_1_1,2022/6/14,17:00,267,126
���X�X����,2_1_1,2022/6/14,18:00,220,91
���X�X����,2_1_1,2022/6/14,19:00,82,76
���X�X����,2_1_1,2022/6/14,20:00,57,34
���X�X����,2_1_1,2022/6/14,21:00,47,27
���X�X����,2_1_1,2022/6/14,22:00,13,5
���X�X����,2_1_1,2022/6/14,23:00,4,1
���X�X����,2_1_1,2022/6/15,0:00,5,0
���X�X����,2_1_1,2022/6/15,1:00,0,0
���X�X����,2_1_1,2022/6/15,2:00,1,0
���X�X����,2_1_1,2022/6/15,3:00,2,3
���X�X����,2_1_1,2022/6/15,4:00,5,1
���X�X����,2_1_1,2022/6/15,5:00,20,16
���X�X����,2_1_1,2022/6/15,6:00,45,38
���X�X����,2_1_1,2022/6/15,7:00,81,319
���X�X����,2_1_1,2022/6/15,8:00,95,343
���X�X����,2_1_1,2022/6/15,9:00,130,134
���X�X����,2_1_1,2022/6/15,10:00,156,198
���X�X����,2_1_1,2022/6/15,11:00,144,156
���X�X����,2_1_1,2022/6/15,12:00,173,203
���X�X����,2_1_1,2022/6/15,13:00,166,152
���X�X����,2_1_1,2022/6/15,14:00,165,143
���X�X����,2_1_1,2022/6/15,15:00,206,124
���X�X����,2_1_1,2022/6/15,16:00,403,145
���X�X����,2_1_1,2022/6/15,17:00,272,131
���X�X����,2_1_1,2022/6/15,18:00,157,155
���X�X����,2_1_1,2022/6/15,19:00,103,85
���X�X����,2_1_1,2022/6/15,20:00,72,64
���X�X����,2_1_1,2022/6/15,21:00,85,28
���X�X����,2_1_1,2022/6/15,22:00,37,15
���X�X����,2_1_1,2022/6/15,23:00,6,2
���X�X����,2_1_1,2022/6/16,0:00,2,0
���X�X����,2_1_1,2022/6/16,1:00,2,0
���X�X����,2_1_1,2022/6/16,2:00,2,1
���X�X����,2_1_1,2022/6/16,3:00,1,2
���X�X����,2_1_1,2022/6/16,4:00,2,1
���X�X����,2_1_1,2022/6/16,5:00,20,24
���X�X����,2_1_1,2022/6/16,6:00,39,49
���X�X����,2_1_1,2022/6/16,7:00,89,422
���X�X����,2_1_1,2022/6/16,8:00,98,369
���X�X����,2_1_1,2022/6/16,9:00,138,161
���X�X����,2_1_1,2022/6/16,10:00,135,210
���X�X����,2_1_1,2022/6/16,11:00,171,189
���X�X����,2_1_1,2022/6/16,12:00,171,194
���X�X����,2_1_1,2022/6/16,13:00,165,187
���X�X����,2_1_1,2022/6/16,14:00,187,182
���X�X����,2_1_1,2022/6/16,15:00,158,114
���X�X����,2_1_1,2022/6/16,16:00,273,121
���X�X����,2_1_1,2022/6/16,17:00,270,140
���X�X����,2_1_1,2022/6/16,18:00,324,103
���X�X����,2_1_1,2022/6/16,19:00,102,103
���X�X����,2_1_1,2022/6/16,20:00,77,66
���X�X����,2_1_1,2022/6/16,21:00,87,28
���X�X����,2_1_1,2022/6/16,22:00,23,8
���X�X����,2_1_1,2022/6/16,23:00,7,1
���X�X����,2_1_1,2022/6/17,0:00,5,1
���X�X����,2_1_1,2022/6/17,1:00,6,1
���X�X����,2_1_1,2022/6/17,2:00,2,0
���X�X����,2_1_1,2022/6/17,3:00,0,1
���X�X����,2_1_1,2022/6/17,4:00,2,2
���X�X����,2_1_1,2022/6/17,5:00,19,18
���X�X����,2_1_1,2022/6/17,6:00,41,53
���X�X����,2_1_1,2022/6/17,7:00,76,452
���X�X����,2_1_1,2022/6/17,8:00,92,365
���X�X����,2_1_1,2022/6/17,9:00,136,180
���X�X����,2_1_1,2022/6/17,10:00,159,248
���X�X����,2_1_1,2022/6/17,11:00,185,209
���X�X����,2_1_1,2022/6/17,12:00,197,251
���X�X����,2_1_1,2022/6/17,13:00,232,210
���X�X����,2_1_1,2022/6/17,14:00,247,205
���X�X����,2_1_1,2022/6/17,15:00,294,150
���X�X����,2_1_1,2022/6/17,16:00,272,169
���X�X����,2_1_1,2022/6/17,17:00,313,157
���X�X����,2_1_1,2022/6/17,18:00,332,176
���X�X����,2_1_1,2022/6/17,19:00,120,142
���X�X����,2_1_1,2022/6/17,20:00,102,83
���X�X����,2_1_1,2022/6/17,21:00,112,68
���X�X����,2_1_1,2022/6/17,22:00,41,18
���X�X����,2_1_1,2022/6/17,23:00,18,6
���X�X����,2_1_1,2022/6/18,0:00,9,3
���X�X����,2_1_1,2022/6/18,1:00,7,1
���X�X����,2_1_1,2022/6/18,2:00,5,1
���X�X����,2_1_1,2022/6/18,3:00,3,1
���X�X����,2_1_1,2022/6/18,4:00,3,2
���X�X����,2_1_1,2022/6/18,5:00,19,19
���X�X����,2_1_1,2022/6/18,6:00,31,35
���X�X����,2_1_1,2022/6/18,7:00,61,97
���X�X����,2_1_1,2022/6/18,8:00,105,130
���X�X����,2_1_1,2022/6/18,9:00,145,224
���X�X����,2_1_1,2022/6/18,10:00,201,362
���X�X����,2_1_1,2022/6/18,11:00,256,340
���X�X����,2_1_1,2022/6/18,12:00,348,486
���X�X����,2_1_1,2022/6/18,13:00,362,454
���X�X����,2_1_1,2022/6/18,14:00,424,365
���X�X����,2_1_1,2022/6/18,15:00,401,254
���X�X����,2_1_1,2022/6/18,16:00,325,250
���X�X����,2_1_1,2022/6/18,17:00,287,255
���X�X����,2_1_1,2022/6/18,18:00,211,229
���X�X����,2_1_1,2022/6/18,19:00,142,159
���X�X����,2_1_1,2022/6/18,20:00,161,90
���X�X����,2_1_1,2022/6/18,21:00,105,49
���X�X����,2_1_1,2022/6/18,22:00,33,16
���X�X����,2_1_1,2022/6/18,23:00,16,4
���X�X����,2_1_1,2022/6/19,0:00,10,3
���X�X����,2_1_1,2022/6/19,1:00,6,2
���X�X����,2_1_1,2022/6/19,2:00,5,2
���X�X����,2_1_1,2022/6/19,3:00,1,0
���X�X����,2_1_1,2022/6/19,4:00,7,1
���X�X����,2_1_1,2022/6/19,5:00,18,16
���X�X����,2_1_1,2022/6/19,6:00,40,26
���X�X����,2_1_1,2022/6/19,7:00,54,80
���X�X����,2_1_1,2022/6/19,8:00,72,109
���X�X����,2_1_1,2022/6/19,9:00,145,239
���X�X����,2_1_1,2022/6/19,10:00,179,407
���X�X����,2_1_1,2022/6/19,11:00,335,423
���X�X����,2_1_1,2022/6/19,12:00,451,553
���X�X����,2_1_1,2022/6/19,13:00,497,519
���X�X����,2_1_1,2022/6/19,14:00,485,409
���X�X����,2_1_1,2022/6/19,15:00,428,320
���X�X����,2_1_1,2022/6/19,16:00,322,207
���X�X����,2_1_1,2022/6/19,17:00,204,154
���X�X����,2_1_1,2022/6/19,18:00,135,147
���X�X����,2_1_1,2022/6/19,19:00,96,92
���X�X����,2_1_1,2022/6/19,20:00,73,48
���X�X����,2_1_1,2022/6/19,21:00,52,25
���X�X����,2_1_1,2022/6/19,22:00,29,7
���X�X����,2_1_1,2022/6/19,23:00,4,0
���X�X����,2_1_1,2022/6/20,0:00,2,3
���X�X����,2_1_1,2022/6/20,1:00,2,3
���X�X����,2_1_1,2022/6/20,2:00,0,3
���X�X����,2_1_1,2022/6/20,3:00,1,1
���X�X����,2_1_1,2022/6/20,4:00,3,2
���X�X����,2_1_1,2022/6/20,5:00,23,18
���X�X����,2_1_1,2022/6/20,6:00,47,39
���X�X����,2_1_1,2022/6/20,7:00,84,418
���X�X����,2_1_1,2022/6/20,8:00,87,362
���X�X����,2_1_1,2022/6/20,9:00,108,152
���X�X����,2_1_1,2022/6/20,10:00,172,239
���X�X����,2_1_1,2022/6/20,11:00,166,187
���X�X����,2_1_1,2022/6/20,12:00,259,231
���X�X����,2_1_1,2022/6/20,13:00,228,168
���X�X����,2_1_1,2022/6/20,14:00,206,130
���X�X����,2_1_1,2022/6/20,15:00,264,128
���X�X����,2_1_1,2022/6/20,16:00,216,121
���X�X����,2_1_1,2022/6/20,17:00,290,143
���X�X����,2_1_1,2022/6/20,18:00,301,124
���X�X����,2_1_1,2022/6/20,19:00,117,92
���X�X����,2_1_1,2022/6/20,20:00,67,38
���X�X����,2_1_1,2022/6/20,21:00,70,38
���X�X����,2_1_1,2022/6/20,22:00,31,14
���X�X����,2_1_1,2022/6/20,23:00,6,1
���X�X����,2_1_1,2022/6/21,0:00,1,3
���X�X����,2_1_1,2022/6/21,1:00,6,0
���X�X����,2_1_1,2022/6/21,2:00,1,1
���X�X����,2_1_1,2022/6/21,3:00,1,1
���X�X����,2_1_1,2022/6/21,4:00,1,0
���X�X����,2_1_1,2022/6/21,5:00,20,23
���X�X����,2_1_1,2022/6/21,6:00,40,33
���X�X����,2_1_1,2022/6/21,7:00,75,209
���X�X����,2_1_1,2022/6/21,8:00,82,230
���X�X����,2_1_1,2022/6/21,9:00,78,108
���X�X����,2_1_1,2022/6/21,10:00,109,118
���X�X����,2_1_1,2022/6/21,11:00,110,112
���X�X����,2_1_1,2022/6/21,12:00,181,193
���X�X����,2_1_1,2022/6/21,13:00,153,107
���X�X����,2_1_1,2022/6/21,14:00,104,107
���X�X����,2_1_1,2022/6/21,15:00,102,88
���X�X����,2_1_1,2022/6/21,16:00,176,102
���X�X����,2_1_1,2022/6/21,17:00,262,119
���X�X����,2_1_1,2022/6/21,18:00,175,83
���X�X����,2_1_1,2022/6/21,19:00,75,67
���X�X����,2_1_1,2022/6/21,20:00,45,31
���X�X����,2_1_1,2022/6/21,21:00,63,30
���X�X����,2_1_1,2022/6/21,22:00,16,6
���X�X����,2_1_1,2022/6/21,23:00,3,1
���X�X����,2_1_1,2022/6/22,0:00,4,0
���X�X����,2_1_1,2022/6/22,1:00,6,1
���X�X����,2_1_1,2022/6/22,2:00,1,1
���X�X����,2_1_1,2022/6/22,3:00,2,1
���X�X����,2_1_1,2022/6/22,4:00,4,3
���X�X����,2_1_1,2022/6/22,5:00,29,22
���X�X����,2_1_1,2022/6/22,6:00,45,45
���X�X����,2_1_1,2022/6/22,7:00,75,198
���X�X����,2_1_1,2022/6/22,8:00,88,211
���X�X����,2_1_1,2022/6/22,9:00,96,134
���X�X����,2_1_1,2022/6/22,10:00,148,207
���X�X����,2_1_1,2022/6/22,11:00,145,210
���X�X����,2_1_1,2022/6/22,12:00,138,155
���X�X����,2_1_1,2022/6/22,13:00,163,140
���X�X����,2_1_1,2022/6/22,14:00,149,120
���X�X����,2_1_1,2022/6/22,15:00,179,107
���X�X����,2_1_1,2022/6/22,16:00,230,102
���X�X����,2_1_1,2022/6/22,17:00,261,148
���X�X����,2_1_1,2022/6/22,18:00,162,119
���X�X����,2_1_1,2022/6/22,19:00,66,86
���X�X����,2_1_1,2022/6/22,20:00,80,45
���X�X����,2_1_1,2022/6/22,21:00,66,28
���X�X����,2_1_1,2022/6/22,22:00,32,9
���X�X����,2_1_1,2022/6/22,23:00,8,1
���X�X����,2_1_1,2022/6/23,0:00,3,1
���X�X����,2_1_1,2022/6/23,1:00,1,0
���X�X����,2_1_1,2022/6/23,2:00,0,1
���X�X����,2_1_1,2022/6/23,3:00,4,0
���X�X����,2_1_1,2022/6/23,4:00,4,2
���X�X����,2_1_1,2022/6/23,5:00,17,28
���X�X����,2_1_1,2022/6/23,6:00,40,54
���X�X����,2_1_1,2022/6/23,7:00,87,441
���X�X����,2_1_1,2022/6/23,8:00,87,371
���X�X����,2_1_1,2022/6/23,9:00,111,155
���X�X����,2_1_1,2022/6/23,10:00,131,173
���X�X����,2_1_1,2022/6/23,11:00,150,181
���X�X����,2_1_1,2022/6/23,12:00,180,184
���X�X����,2_1_1,2022/6/23,13:00,123,129
���X�X����,2_1_1,2022/6/23,14:00,151,115
���X�X����,2_1_1,2022/6/23,15:00,131,104
���X�X����,2_1_1,2022/6/23,16:00,349,159
���X�X����,2_1_1,2022/6/23,17:00,328,148
���X�X����,2_1_1,2022/6/23,18:00,185,112
���X�X����,2_1_1,2022/6/23,19:00,112,94
���X�X����,2_1_1,2022/6/23,20:00,84,78
���X�X����,2_1_1,2022/6/23,21:00,122,37
���X�X����,2_1_1,2022/6/23,22:00,32,14
���X�X����,2_1_1,2022/6/23,23:00,4,0
���X�X����,2_1_1,2022/6/24,0:00,1,0
���X�X����,2_1_1,2022/6/24,1:00,2,0
���X�X����,2_1_1,2022/6/24,2:00,4,1
���X�X����,2_1_1,2022/6/24,3:00,2,2
���X�X����,2_1_1,2022/6/24,4:00,1,1
���X�X����,2_1_1,2022/6/24,5:00,19,31
���X�X����,2_1_1,2022/6/24,6:00,44,60
���X�X����,2_1_1,2022/6/24,7:00,85,404
���X�X����,2_1_1,2022/6/24,8:00,107,362
���X�X����,2_1_1,2022/6/24,9:00,136,207
���X�X����,2_1_1,2022/6/24,10:00,174,236
���X�X����,2_1_1,2022/6/24,11:00,189,206
���X�X����,2_1_1,2022/6/24,12:00,198,255
���X�X����,2_1_1,2022/6/24,13:00,205,191
���X�X����,2_1_1,2022/6/24,14:00,184,148
���X�X����,2_1_1,2022/6/24,15:00,337,116
���X�X����,2_1_1,2022/6/24,16:00,322,162
���X�X����,2_1_1,2022/6/24,17:00,277,172
���X�X����,2_1_1,2022/6/24,18:00,200,170
���X�X����,2_1_1,2022/6/24,19:00,139,123
���X�X����,2_1_1,2022/6/24,20:00,90,96
���X�X����,2_1_1,2022/6/24,21:00,124,41
���X�X����,2_1_1,2022/6/24,22:00,47,10
���X�X����,2_1_1,2022/6/24,23:00,15,2
���X�X����,2_1_1,2022/6/25,0:00,4,1
���X�X����,2_1_1,2022/6/25,1:00,4,0
���X�X����,2_1_1,2022/6/25,2:00,3,0
���X�X����,2_1_1,2022/6/25,3:00,6,0
���X�X����,2_1_1,2022/6/25,4:00,2,2
���X�X����,2_1_1,2022/6/25,5:00,24,24
���X�X����,2_1_1,2022/6/25,6:00,36,44
���X�X����,2_1_1,2022/6/25,7:00,34,62
���X�X����,2_1_1,2022/6/25,8:00,95,122
���X�X����,2_1_1,2022/6/25,9:00,123,182
���X�X����,2_1_1,2022/6/25,10:00,166,310
���X�X����,2_1_1,2022/6/25,11:00,198,342
���X�X����,2_1_1,2022/6/25,12:00,314,453
���X�X����,2_1_1,2022/6/25,13:00,364,333
���X�X����,2_1_1,2022/6/25,14:00,303,282
���X�X����,2_1_1,2022/6/25,15:00,412,300
���X�X����,2_1_1,2022/6/25,16:00,269,186
���X�X����,2_1_1,2022/6/25,17:00,219,208
���X�X����,2_1_1,2022/6/25,18:00,199,188
���X�X����,2_1_1,2022/6/25,19:00,143,99
���X�X����,2_1_1,2022/6/25,20:00,128,62
���X�X����,2_1_1,2022/6/25,21:00,74,46
���X�X����,2_1_1,2022/6/25,22:00,41,15
���X�X����,2_1_1,2022/6/25,23:00,17,3
���X�X����,2_1_1,2022/6/26,0:00,7,3
���X�X����,2_1_1,2022/6/26,1:00,4,3
���X�X����,2_1_1,2022/6/26,2:00,4,0
���X�X����,2_1_1,2022/6/26,3:00,1,0
���X�X����,2_1_1,2022/6/26,4:00,1,0
���X�X����,2_1_1,2022/6/26,5:00,30,25
���X�X����,2_1_1,2022/6/26,6:00,31,28
���X�X����,2_1_1,2022/6/26,7:00,49,52